Location: Burzi?i
(45.0869°N, 16.0577°E)
Time: 12:02:20
(UTC+00:00)

Cosmos 1354 Rocket - Pass Details

Date: 29 October 2020
Orbit: 764 x 783 km, 74.0° (Epoch: 27 November)

Event Time Altitude Azimuth Distance (km) Brightness Sun altitude
Rises 17:29:05 0° 340° (NNW) 3,248 7.5 -18.4°
Reaches altitude 10° 17:31:29 10° 342° (NNW) 2,319 6.7 -18.8°
Maximum altitude 17:36:45 76° 68° (ENE) 799 3.9 -19.8°
Enters shadow 17:41:02 16° 153° (SSE) 1,943 5.8 -20.5°
